Peakbagger.com

Show List Using Metric Units

Unsuccessful Ascent List for Bob Keranen

No one can call themselves an experienced mountaineer unless they have turned back unsuccessfully from some of their summit attempts. Climbing is a game of knowing when to press on and when to bail, and these choices can mean the difference between great success and needless death. It is a misnomer, of course, to call any trip into the mountains “unsuccessful” —these attempts are often richer experiences with far more opportunities for learning and growth.

The following table shows all of Bob Keranen's unsuccessful attempts. If the peak was climbed later, then the successful ascent date is noted, and how much time elapsed since the attempt. The “Attempt” column will be 2, 3, or other higher numbers for peaks that have been unsuccessfully attempted more than once. Unsuccessful attempts of peaks that have already been climbed are also shown.

Ascent DateTrip ReportPeak or PointElev-ftReached-ftAttemptLocationProm-ftSuccess DateTime Elapsed
2008-09-20TRMount Hood112399500 USA-OR7706 
2009-04-19TRMount Hood1123993502USA-OR7706 
2009-09-12 The Brothers68426535 USA-WA2682 
2010-05-31TRMount Skokomish64345950 USA-WA1154 
2010-07-04 Mount Rainier1441110250 USA-WA13246 
2010-07-25TRMount Rainier14411119002USA-WA13246 
2011-07-31TRMount Cruiser61045850 USA-WA1104 
2012-05-06TRSilver Peak56055200 USA-WA21252018-09-026 Years, 119 Days Later
2012-05-27TRMount Hood1123992003USA-OR7706 
2012-08-19TRObservation Rock83647500 USA-WA2442012-09-2234 Days Later
2012-09-01TRGlacier Peak105209100 USA-WA7498 
2012-09-30TRThe Castle64406240 USA-WA2002009-09-19Already Climbed
2012-10-07TRMount Washington62555900 USA-WA26152009-05-12Already Climbed
2013-01-19TRGranite Mountain56295000 USA-WA11492013-12-28343 Days Later
2013-03-31TRSilver Peak560550002USA-WA21252018-09-025 Years, 155 Days Later
2013-04-21TRMount Ellinor59204800 USA-WA4402009-04-17Already Climbed
2013-06-29TRMount Rainier14411106003USA-WA13246 
2013-07-20TRMount Adams122767800 USA-WA81162012-07-28Already Climbed
2013-09-08 Ruth Mountain71156800 USA-WA1315 
2014-04-05TRSilver Peak560550003USA-WA21252018-09-024 Years, 150 Days Later
2014-08-24 Guye Peak51684200 USA-WA5282010-08-08Already Climbed
2014-10-12TRIngalls Peak-South Peak76407000 USA-WA2802014-07-06Already Climbed
2015-01-03TRChutla Peak60005400 USA-WA6002008-10-17Already Climbed
2015-05-10TRMount Saint Helens83337200 USA-WA45732009-06-25Already Climbed
2015-06-07TRGuye Peak51684900 USA-WA5282010-08-08Already Climbed
2015-06-13TRIngalls Peak-South Peak76407400 USA-WA2802014-07-06Already Climbed
2015-06-21TRUnicorn Peak69716890 USA-WA20912013-06-22Already Climbed
2015-07-04TRSahale Peak86806900 USA-WA802009-07-11Already Climbed
2015-07-18TRMount Adams122767800 USA-WA81162012-07-28Already Climbed
2015-09-05TRDewey Peak67106540 USA-WA1390 
2015-09-12TRMount Daniel-East Peak78996200 USA-WA2592013-09-01Already Climbed
2015-09-13TRCathedral Rock67245800 USA-WA1084 
2016-05-03TREagle Peak59585770 USA-WA2382008-10-17Already Climbed
2016-05-08TRMount Saint Helens83334500 USA-WA45732009-06-25Already Climbed
2016-05-15TRGranite Mountain56294800 USA-WA11492013-12-28Already Climbed
2016-06-12TRMount Ararat60105700 USA-WA6102018-06-222 Years, 10 Days Later
2016-07-02TRTahtlum Peak65676260 USA-WA11352018-08-272 Years, 56 Days Later
2016-07-04TRCrystal Peak65956495 USA-WA2752017-06-27358 Days Later
2016-07-10TRNorse Peak68565800 USA-WA9742018-06-171 Year, 342 Days Later
2016-08-06TRMiddle Sister100478250 USA-OR1127 
2016-09-10TRTatoosh Peak63106040 USA-WA9502018-09-272 Years, 17 Days Later
2017-04-08 Tusk O'Granite55663800 USA-WA406 
2017-04-15 Sweet Peak45604000 USA-WA2002017-06-1157 Days Later
2017-05-07 Old Baldy Mountain57964800 USA-WA756 
2017-05-14 Larch Mountain40553001 USA-OR9752012-06-16Already Climbed
2017-06-17TRCowlitz Rocks74506800 USA-WA3302020-09-203 Years, 95 Days Later
2017-06-25TRFoss Peak65245524 USA-WA4042018-06-05345 Days Later
2017-06-26TRFoss Peak652460242USA-WA4042018-06-05344 Days Later
2017-07-10TRSouth Early Winter Spire78077400 USA-WA647 
2017-07-22TRAurora Peak60944900 USA-WA2942018-07-11354 Days Later
2017-08-07TRCopper Mountain62805950 USA-WA280 
2017-08-10 Bearhead Mountain-East Peak60415441 USA-WA2812019-10-122 Years, 63 Days Later
2017-08-19TRMount Cruiser610450002USA-WA1104 
2017-09-02 Barrier Peak65216100 USA-WA281 
2018-05-25TRBuckhorn Mountain69886000 USA-WA988 
2018-07-04TRGlacier Peak1052062002USA-WA7498 
2018-07-15TRMineral Mountain65005000 USA-WA100 
2018-07-21TRSeymour Peak63376300 USA-WA4572015-09-05Already Climbed
2018-08-12TRCopper Mountain628061802USA-WA280 
2018-09-23TRSlippery Slab Tower63560 USA-WA1162014-09-06Already Climbed
2018-09-25TRSahale Peak86805600 USA-WA802009-07-11Already Climbed
2018-09-29TRRuth Mountain-Northeast Ridge68005175 USA-WA0 
2018-10-18TRMount Whitney1449811000 USA-CA10078 
2019-01-15TRMount Ellinor59204520 USA-WA4402009-04-17Already Climbed
2019-03-03TRHex Mountain50342800 USA-WA474 
2019-05-08TRHigh Rock56855098 USA-WA31252019-11-20196 Days Later
2019-06-10TRFoss Peak65246424 USA-WA4042018-06-05Already Climbed
2019-06-16TRUnicorn Peak69715400 USA-WA20912013-06-22Already Climbed
2019-06-22TRWahpenayo Peak62315800 USA-WA791 
2019-07-06TRFirst Burroughs Mountain71606960 USA-WA542016-08-27Already Climbed
2019-07-21TRCastle Peak61205900 USA-WA1602020-08-301 Year, 40 Days Later
2019-08-02TRLassen Peak104578800 USA-CA5229 
2019-08-29TRBuckhorn Mountain698859502USA-WA988 
2019-09-13TRRuth Mountain711565002USA-WA1315 
2019-11-30 bTRHarrison Peak53455345 USA-WA2852020-07-14227 Days Later
2020-05-29TRFreedom Peak64426442 USA-WA442 
2020-06-04TRHarrison Peak534553452USA-WA2852020-07-1440 Days Later
2020-06-23TRYellow Hill55275050 USA-WA287 
2020-08-02TRColdwater Peak57205320 USA-WA720 
2020-09-06TRBarrier Peak652163212USA-WA281 
2020-11-02 Three Way Peak67966796 USA-WA236 
2021-06-24TRMeany Crest72807280 USA-WA402021-09-0169 Days Later
2021-10-12TRFortune Peak73827382 USA-WA102 

Map Showing Location of Peaks

 = Peaks successfully climbed after unsuccessful attempt   = Unclimbed peaks  (Note: Unsuccessful attempts on previously climbed peaks are not shown)

Click on a peak to see its name and a clickable link.

Click Here for a Full Screen Map





Copyright © 1987-2022 by Peakbagger.com. All Rights Reserved. Questions/Comments/Corrections? See the Contact Page Terms of Service